QLK1591 YBSU-YSSY

Flight info

Callsign QLK1591
Flight time 1h 26m
Altitude 38000
Route MOOLO Q35 SANEG H91 IGDAM H652 BOREE
Aircraft A319/M-SDE3FGHIRWY/LB1

Departure

Time 2026-04-26 10:22
Airport Sunshine Coast Airport (YBSU)

Arrival

Time 2026-04-26 11:49
Airport Sydney Kingsford Smith International Airport (YSSY)
Time Latitude Longitude Altitude Speed Heading
2026-04-26 09:45 -26.60564 153.08947 22 ft 0 kts 284°
2026-04-26 10:13 -26.60566 153.08956 21 ft 3 kts 285°
2026-04-26 10:13 -26.60572 153.08977 21 ft 3 kts 291°
2026-04-26 10:13 -26.60580 153.08997 24 ft 3 kts 311°
2026-04-26 10:14 -26.60592 153.09008 23 ft 2 kts
2026-04-26 10:14 -26.60597 153.09007 23 ft 0 kts 14°
2026-04-26 10:16 -26.60586 153.09013 22 ft 4 kts 28°
2026-04-26 10:16 -26.60556 153.09044 24 ft 8 kts 46°
2026-04-26 10:16 -26.60494 153.09073 21 ft 12 kts 351°
2026-04-26 10:16 -26.60413 153.09015 21 ft 16 kts 321°
2026-04-26 10:17 -26.60318 153.08930 22 ft 19 kts 321°
2026-04-26 10:17 -26.60201 153.08831 22 ft 23 kts 321°
2026-04-26 10:17 -26.60066 153.08716 23 ft 26 kts 323°
2026-04-26 10:17 -26.59911 153.08586 22 ft 30 kts 322°
2026-04-26 10:18 -26.59738 153.08438 23 ft 33 kts 323°
2026-04-26 10:18 -26.59544 153.08274 21 ft 30 kts 323°
2026-04-26 10:18 -26.59443 153.08192 23 ft 16 kts 339°
2026-04-26 10:18 -26.59358 153.08269 22 ft 17 kts 53°
2026-04-26 10:19 -26.59246 153.08256 21 ft 20 kts 322°
2026-04-26 10:19 -26.59127 153.08149 21 ft 24 kts 321°
2026-04-26 10:19 -26.58990 153.08030 24 ft 26 kts 323°
2026-04-26 10:19 -26.58833 153.07900 23 ft 30 kts 323°
2026-04-26 10:20 -26.58659 153.07753 22 ft 34 kts 321°
2026-04-26 10:20 -26.58535 153.07642 23 ft 32 kts 321°
2026-04-26 10:20 -26.58388 153.07449 22 ft 22 kts 335°
2026-04-26 10:20 -26.58380 153.07522 21 ft 13 kts 175°
2026-04-26 10:21 -26.58437 153.07567 23 ft 0 kts 141°
2026-04-26 10:21 -26.58448 153.07578 22 ft 18 kts 141°
2026-04-26 10:21 -26.58738 153.07824 25 ft 85 kts 142°
2026-04-26 10:22 -26.59360 153.08357 24 ft 139 kts 142°
2026-04-26 10:22 -26.60133 153.09011 522 ft 139 kts 144°
2026-04-26 10:22 -26.60903 153.09666 1100 ft 139 kts 142°
2026-04-26 10:22 -26.61669 153.10324 1700 ft 140 kts 144°
2026-04-26 10:23 -26.62477 153.11016 2119 ft 156 kts 143°
2026-04-26 10:23 -26.63399 153.11805 2408 ft 180 kts 142°
2026-04-26 10:23 -26.64432 153.12750 2784 ft 204 kts 134°
2026-04-26 10:23 -26.65436 153.14002 3270 ft 228 kts 131°
2026-04-26 10:24 -26.66206 153.14839 3778 ft 238 kts 143°
2026-04-26 10:24 -26.67768 153.15561 4634 ft 250 kts 164°
2026-04-26 10:24 -26.69475 153.16018 5609 ft 254 kts 164°
2026-04-26 10:24 -26.71211 153.16487 6558 ft 258 kts 163°
2026-04-26 10:25 -26.72974 153.16968 7440 ft 264 kts 163°
2026-04-26 10:25 -26.74771 153.17462 8322 ft 268 kts 163°
2026-04-26 10:25 -26.76598 153.17964 9182 ft 273 kts 163°
2026-04-26 10:25 -26.78457 153.18475 10066 ft 277 kts 162°
2026-04-26 10:26 -26.80387 153.19010 10499 ft 297 kts 163°
2026-04-26 10:26 -26.82465 153.19589 10890 ft 314 kts 163°
2026-04-26 10:26 -26.84616 153.20180 11556 ft 321 kts 163°
2026-04-26 10:26 -26.86810 153.20779 12279 ft 326 kts 164°
2026-04-26 10:27 -26.89036 153.21386 13003 ft 331 kts 164°
2026-04-26 10:27 -26.91288 153.22002 13766 ft 335 kts 163°
2026-04-26 10:27 -26.93569 153.22627 14425 ft 339 kts 164°
2026-04-26 10:27 -26.95872 153.23258 15089 ft 342 kts 165°
2026-04-26 10:28 -26.98192 153.23893 15775 ft 345 kts 164°
2026-04-26 10:28 -27.00533 153.24536 16400 ft 349 kts 165°
2026-04-26 10:28 -27.02899 153.25189 17078 ft 352 kts 165°
2026-04-26 10:28 -27.05287 153.25849 17726 ft 355 kts 165°
2026-04-26 10:29 -27.07698 153.26512 18355 ft 359 kts 165°
2026-04-26 10:29 -27.10126 153.27181 18961 ft 361 kts 166°
2026-04-26 10:29 -27.12576 153.27857 19514 ft 364 kts 166°
2026-04-26 10:29 -27.15049 153.28540 20129 ft 365 kts 166°
2026-04-26 10:30 -27.17529 153.29223 20719 ft 368 kts 167°
2026-04-26 10:30 -27.19842 153.29861 21201 ft 372 kts 167°
2026-04-26 10:30 -27.22365 153.30555 21766 ft 375 kts 167°
2026-04-26 10:30 -27.24877 153.31247 22272 ft 378 kts 168°
2026-04-26 10:31 -27.27442 153.31956 22816 ft 381 kts 168°
2026-04-26 10:31 -27.30066 153.32683 23346 ft 385 kts 168°
2026-04-26 10:31 -27.32646 153.33367 23841 ft 387 kts 172°
2026-04-26 10:31 -27.35335 153.33605 24256 ft 388 kts 183°
2026-04-26 10:32 -27.38016 153.33224 24675 ft 389 kts 195°
2026-04-26 10:32 -27.40574 153.32235 25111 ft 390 kts 206°
2026-04-26 10:32 -27.42939 153.30728 25532 ft 392 kts 212°
2026-04-26 10:32 -27.45275 153.29133 25971 ft 394 kts 212°
2026-04-26 10:33 -27.47629 153.27534 26404 ft 396 kts 212°
2026-04-26 10:33 -27.49995 153.25933 26832 ft 398 kts 212°
2026-04-26 10:33 -27.52371 153.24331 27260 ft 399 kts 212°
2026-04-26 10:33 -27.54760 153.22721 27684 ft 401 kts 212°
2026-04-26 10:34 -27.57165 153.21099 28099 ft 403 kts 212°
2026-04-26 10:34 -27.59577 153.19470 28510 ft 405 kts 213°
2026-04-26 10:34 -27.62001 153.17831 28925 ft 407 kts 213°
2026-04-26 10:34 -27.64440 153.16178 29365 ft 409 kts 213°
2026-04-26 10:35 -27.66887 153.14519 29780 ft 411 kts 213°
2026-04-26 10:35 -27.69342 153.12853 30174 ft 413 kts 213°
2026-04-26 10:35 -27.71815 153.11170 30489 ft 416 kts 213°
2026-04-26 10:35 -27.74302 153.09477 30789 ft 418 kts 213°
2026-04-26 10:36 -27.76801 153.07777 31100 ft 420 kts 213°
2026-04-26 10:36 -27.79312 153.06069 31402 ft 422 kts 213°
2026-04-26 10:36 -27.81873 153.04420 31698 ft 426 kts 208°
2026-04-26 10:36 -27.84627 153.03141 32026 ft 429 kts 204°
2026-04-26 10:37 -27.87409 153.01933 32446 ft 428 kts 204°
2026-04-26 10:37 -27.90184 153.00724 32870 ft 427 kts 204°
2026-04-26 10:37 -27.92949 152.99517 33297 ft 426 kts 205°
2026-04-26 10:37 -27.95707 152.98309 33724 ft 425 kts 205°
2026-04-26 10:38 -27.98462 152.97100 34153 ft 424 kts 205°
2026-04-26 10:38 -28.01210 152.95893 34522 ft 424 kts 205°
2026-04-26 10:38 -28.03957 152.94686 34864 ft 423 kts 205°
2026-04-26 10:38 -28.06703 152.93480 35207 ft 423 kts 205°
2026-04-26 10:39 -28.09447 152.92276 35524 ft 423 kts 205°
2026-04-26 10:39 -28.12191 152.91067 35847 ft 423 kts 205°
2026-04-26 10:39 -28.14932 152.89851 36150 ft 423 kts 205°
2026-04-26 10:39 -28.17670 152.88631 36456 ft 423 kts 205°
2026-04-26 10:40 -28.20414 152.87410 36750 ft 423 kts 206°
2026-04-26 10:40 -28.23154 152.86189 37053 ft 423 kts 206°
2026-04-26 10:40 -28.25898 152.84963 37342 ft 423 kts 206°
2026-04-26 10:40 -28.28640 152.83739 37621 ft 423 kts 206°
2026-04-26 10:41 -28.31378 152.82517 37902 ft 423 kts 206°
2026-04-26 10:41 -28.34121 152.81294 38153 ft 424 kts 206°
2026-04-26 10:41 -28.39593 152.78851 38248 ft 426 kts 205°
2026-04-26 10:42 -28.45109 152.76385 38253 ft 426 kts 206°
2026-04-26 10:42 -28.50620 152.73911 38260 ft 426 kts 206°
2026-04-26 10:43 -28.56132 152.71443 38258 ft 426 kts 205°
2026-04-26 10:43 -28.61657 152.68969 38278 ft 426 kts 205°
2026-04-26 10:44 -28.67180 152.66496 38277 ft 427 kts 205°
2026-04-26 10:44 -28.72706 152.64014 38277 ft 427 kts 205°
2026-04-26 10:45 -28.78231 152.61530 38275 ft 427 kts 205°
2026-04-26 10:45 -28.83760 152.59041 38291 ft 427 kts 205°
2026-04-26 10:46 -28.89060 152.56060 38287 ft 424 kts 211°
2026-04-26 10:46 -28.94294 152.52946 38287 ft 424 kts 211°
2026-04-26 10:47 -28.99531 152.49834 38289 ft 424 kts 211°
2026-04-26 10:47 -29.04767 152.46714 38286 ft 424 kts 211°
2026-04-26 10:48 -29.10002 152.43591 38301 ft 424 kts 210°
2026-04-26 10:48 -29.15231 152.40462 38299 ft 424 kts 210°
2026-04-26 10:49 -29.20471 152.37340 38299 ft 424 kts 210°
2026-04-26 10:49 -29.25699 152.34212 38304 ft 424 kts 210°
2026-04-26 10:50 -29.30041 152.31605 38312 ft 424 kts 210°
2026-04-26 10:50 -29.36143 152.27943 38308 ft 423 kts 210°
2026-04-26 10:51 -29.43964 152.23244 38303 ft 423 kts 210°
2026-04-26 10:52 -29.49173 152.20111 38300 ft 423 kts 210°
2026-04-26 10:52 -29.54383 152.16965 38310 ft 423 kts 210°
2026-04-26 10:53 -29.59589 152.13824 38302 ft 423 kts 210°
2026-04-26 10:53 -29.64766 152.10709 38311 ft 422 kts 210°
2026-04-26 10:54 -29.72867 152.06742 38302 ft 426 kts 195°
2026-04-26 10:54 -29.78659 152.05246 38309 ft 427 kts 194°
2026-04-26 10:55 -29.84454 152.03747 38308 ft 427 kts 194°
2026-04-26 10:55 -29.89314 152.02479 38312 ft 427 kts 195°
2026-04-26 10:56 -29.96051 152.00705 38320 ft 427 kts 195°
2026-04-26 10:56 -30.01847 151.99182 38319 ft 427 kts 194°
2026-04-26 10:57 -30.07653 151.97671 38319 ft 427 kts 194°
2026-04-26 10:57 -30.13448 151.96152 38314 ft 427 kts 194°
2026-04-26 10:58 -30.19255 151.94620 38334 ft 427 kts 194°
2026-04-26 10:58 -30.25061 151.93084 38318 ft 428 kts 194°
2026-04-26 10:59 -30.30867 151.91553 38315 ft 428 kts 195°
2026-04-26 10:59 -30.36418 151.89284 38329 ft 426 kts 203°
2026-04-26 11:00 -30.41915 151.86728 38324 ft 426 kts 204°
2026-04-26 11:00 -30.47414 151.84161 38308 ft 426 kts 202°
2026-04-26 11:01 -30.52917 151.81589 38304 ft 427 kts 202°
2026-04-26 11:01 -30.58437 151.79009 38293 ft 428 kts 202°
2026-04-26 11:02 -30.63968 151.76431 38303 ft 429 kts 202°
2026-04-26 11:02 -30.69503 151.73838 38310 ft 429 kts 202°
2026-04-26 11:03 -30.75041 151.71245 38309 ft 429 kts 202°
2026-04-26 11:03 -30.80549 151.68671 38304 ft 429 kts 202°
2026-04-26 11:04 -30.86084 151.66075 38313 ft 429 kts 202°
2026-04-26 11:04 -30.91617 151.63472 38319 ft 429 kts 202°
2026-04-26 11:05 -30.96255 151.61289 38307 ft 429 kts 202°
2026-04-26 11:05 -31.01791 151.58679 38315 ft 429 kts 202°
2026-04-26 11:06 -31.07293 151.56086 38310 ft 429 kts 202°
2026-04-26 11:06 -31.12828 151.53477 38312 ft 429 kts 202°
2026-04-26 11:07 -31.18361 151.50857 38313 ft 429 kts 202°
2026-04-26 11:07 -31.23896 151.48235 38313 ft 429 kts 202°
2026-04-26 11:08 -31.29433 151.45609 38314 ft 429 kts 202°
2026-04-26 11:08 -31.34969 151.42981 38319 ft 429 kts 202°
2026-04-26 11:09 -31.40510 151.40368 38318 ft 429 kts 201°
2026-04-26 11:09 -31.46096 151.37857 38315 ft 430 kts 201°
2026-04-26 11:10 -31.51694 151.35401 38316 ft 430 kts 201°
2026-04-26 11:10 -31.57299 151.32917 38311 ft 430 kts 201°
2026-04-26 11:11 -31.62887 151.30413 38330 ft 430 kts 201°
2026-04-26 11:11 -31.65678 151.29157 38197 ft 430 kts 201°
2026-04-26 11:11 -31.68469 151.27904 37922 ft 429 kts 201°
2026-04-26 11:12 -31.71258 151.26651 37650 ft 429 kts 201°
2026-04-26 11:12 -31.74047 151.25395 37385 ft 429 kts 201°
2026-04-26 11:12 -31.76838 151.24136 37123 ft 430 kts 201°
2026-04-26 11:12 -31.79630 151.22880 36863 ft 430 kts 201°
2026-04-26 11:13 -31.82425 151.21625 36602 ft 430 kts 201°
2026-04-26 11:13 -31.85218 151.20372 36352 ft 428 kts 201°
2026-04-26 11:13 -31.87999 151.19121 36101 ft 426 kts 201°
2026-04-26 11:13 -31.90764 151.17876 35847 ft 424 kts 201°
2026-04-26 11:14 -31.93514 151.16635 35601 ft 422 kts 201°
2026-04-26 11:14 -31.96249 151.15402 35358 ft 420 kts 201°
2026-04-26 11:14 -31.98977 151.14178 35116 ft 418 kts 201°
2026-04-26 11:14 -32.01687 151.12963 34876 ft 416 kts 200°
2026-04-26 11:15 -32.04390 151.11750 34636 ft 415 kts 200°
2026-04-26 11:15 -32.07081 151.10541 34400 ft 413 kts 200°
2026-04-26 11:15 -32.09757 151.09338 34134 ft 411 kts 200°
2026-04-26 11:15 -32.12420 151.08142 33872 ft 409 kts 200°
2026-04-26 11:16 -32.15064 151.06954 33533 ft 404 kts 200°
2026-04-26 11:16 -32.17682 151.05779 33087 ft 401 kts 200°
2026-04-26 11:16 -32.20280 151.04611 32651 ft 398 kts 200°
2026-04-26 11:16 -32.22862 151.03451 32214 ft 395 kts 200°
2026-04-26 11:17 -32.25423 151.02299 31802 ft 393 kts 200°
2026-04-26 11:17 -32.27973 151.01151 31375 ft 391 kts 200°
2026-04-26 11:17 -32.30505 151.00011 30963 ft 389 kts 200°
2026-04-26 11:17 -32.33026 150.98873 30564 ft 387 kts 200°
2026-04-26 11:18 -32.35534 150.97738 30129 ft 385 kts 200°
2026-04-26 11:18 -32.38030 150.96607 29731 ft 382 kts 200°
2026-04-26 11:18 -32.40500 150.95484 29355 ft 379 kts 200°
2026-04-26 11:18 -32.42949 150.94372 28983 ft 376 kts 200°
2026-04-26 11:19 -32.45385 150.93267 28617 ft 373 kts 200°
2026-04-26 11:19 -32.47816 150.92253 28258 ft 369 kts 193°
2026-04-26 11:19 -32.50323 150.91743 27895 ft 364 kts 183°
2026-04-26 11:19 -32.52842 150.91792 27530 ft 360 kts 172°
2026-04-26 11:20 -32.55302 150.92224 27169 ft 356 kts 170°
2026-04-26 11:20 -32.56922 150.92515 26921 ft 354 kts 171°
2026-04-26 11:20 -32.60162 150.93087 26441 ft 350 kts 171°
2026-04-26 11:20 -32.62567 150.93506 26073 ft 348 kts 171°
2026-04-26 11:21 -32.64955 150.93922 25697 ft 346 kts 170°
2026-04-26 11:21 -32.67335 150.94340 25321 ft 344 kts 170°
2026-04-26 11:21 -32.69698 150.94758 24940 ft 343 kts 170°
2026-04-26 11:21 -32.72055 150.95177 24552 ft 342 kts 170°
2026-04-26 11:22 -32.74404 150.95594 24173 ft 341 kts 170°
2026-04-26 11:22 -32.76748 150.96010 23764 ft 341 kts 170°
2026-04-26 11:22 -32.79087 150.96425 23345 ft 339 kts 170°
2026-04-26 11:22 -32.81410 150.96839 22953 ft 336 kts 170°
2026-04-26 11:23 -32.83714 150.97251 22566 ft 334 kts 170°
2026-04-26 11:23 -32.86003 150.97659 22183 ft 332 kts 170°
2026-04-26 11:23 -32.88281 150.98066 21803 ft 330 kts 170°
2026-04-26 11:23 -32.90544 150.98472 21423 ft 328 kts 170°
2026-04-26 11:24 -32.92796 150.98875 21028 ft 326 kts 170°
2026-04-26 11:24 -32.95038 150.99271 20661 ft 325 kts 170°
2026-04-26 11:24 -32.97245 150.99660 20291 ft 324 kts 170°
2026-04-26 11:24 -32.99472 151.00054 19917 ft 323 kts 170°
2026-04-26 11:25 -33.01698 151.00452 19365 ft 328 kts 170°
2026-04-26 11:25 -33.03965 151.00860 18900 ft 329 kts 170°
2026-04-26 11:25 -33.06226 151.01265 18504 ft 328 kts 170°
2026-04-26 11:25 -33.08481 151.01669 18093 ft 326 kts 170°
2026-04-26 11:26 -33.10711 151.02064 17717 ft 323 kts 170°
2026-04-26 11:26 -33.12927 151.02458 17332 ft 321 kts 170°
2026-04-26 11:26 -33.15126 151.02850 16958 ft 318 kts 170°
2026-04-26 11:26 -33.17308 151.03242 16590 ft 316 kts 170°
2026-04-26 11:27 -33.19475 151.03631 16228 ft 314 kts 171°
2026-04-26 11:27 -33.21626 151.04014 15863 ft 312 kts 171°
2026-04-26 11:27 -33.23771 151.04401 15501 ft 311 kts 170°
2026-04-26 11:27 -33.25899 151.04800 15144 ft 309 kts 170°
2026-04-26 11:28 -33.28018 151.05209 14781 ft 308 kts 170°
2026-04-26 11:28 -33.30131 151.05621 14428 ft 307 kts 170°
2026-04-26 11:28 -33.32238 151.06032 14062 ft 306 kts 170°
2026-04-26 11:28 -33.34336 151.06441 13685 ft 305 kts 170°
2026-04-26 11:29 -33.36424 151.06841 13326 ft 303 kts 170°
2026-04-26 11:29 -33.38495 151.07235 12966 ft 301 kts 170°
2026-04-26 11:29 -33.40556 151.07627 12619 ft 299 kts 170°
2026-04-26 11:29 -33.42603 151.08016 12271 ft 297 kts 170°
2026-04-26 11:30 -33.44638 151.08404 11926 ft 295 kts 170°
2026-04-26 11:30 -33.45979 151.08660 11696 ft 295 kts 170°
2026-04-26 11:30 -33.48681 151.09180 11234 ft 293 kts 170°
2026-04-26 11:30 -33.50692 151.09568 10886 ft 292 kts 170°
2026-04-26 11:31 -33.52698 151.09955 10542 ft 291 kts 170°
2026-04-26 11:31 -33.54697 151.10343 10189 ft 291 kts 169°
2026-04-26 11:31 -33.56697 151.10732 9821 ft 290 kts 170°
2026-04-26 11:31 -33.58685 151.11117 9471 ft 289 kts 170°
2026-04-26 11:32 -33.60661 151.11499 9124 ft 287 kts 170°
2026-04-26 11:32 -33.62626 151.11880 8878 ft 285 kts 170°
2026-04-26 11:32 -33.64592 151.12267 8733 ft 287 kts 170°
2026-04-26 11:32 -33.66566 151.12653 8567 ft 287 kts 170°
2026-04-26 11:33 -33.68533 151.13035 8399 ft 286 kts 170°
2026-04-26 11:33 -33.70491 151.13419 8233 ft 285 kts 170°
2026-04-26 11:33 -33.72442 151.13804 8060 ft 284 kts 170°
2026-04-26 11:33 -33.74390 151.14188 7894 ft 283 kts 170°
2026-04-26 11:34 -33.76324 151.14566 7717 ft 281 kts 170°
2026-04-26 11:34 -33.78258 151.14937 7549 ft 280 kts 170°
2026-04-26 11:34 -33.80183 151.15280 7381 ft 280 kts 175°
2026-04-26 11:34 -33.82119 151.15186 7218 ft 279 kts 189°
2026-04-26 11:35 -33.84009 151.14656 7052 ft 278 kts 193°
2026-04-26 11:35 -33.85889 151.14109 6887 ft 278 kts 193°
2026-04-26 11:35 -33.87766 151.13569 6720 ft 277 kts 192°
2026-04-26 11:35 -33.89003 151.13216 6609 ft 276 kts 193°
2026-04-26 11:36 -33.91503 151.12500 6387 ft 275 kts 193°
2026-04-26 11:36 -33.93366 151.11964 6222 ft 275 kts 193°
2026-04-26 11:36 -33.95222 151.11427 6059 ft 274 kts 193°
2026-04-26 11:36 -33.97071 151.10893 5882 ft 273 kts 193°
2026-04-26 11:37 -33.98913 151.10363 5692 ft 272 kts 193°
2026-04-26 11:37 -34.00748 151.09833 5505 ft 271 kts 193°
2026-04-26 11:37 -34.02574 151.09303 5320 ft 270 kts 194°
2026-04-26 11:37 -34.04394 151.08774 5136 ft 269 kts 194°
2026-04-26 11:38 -34.06208 151.08251 4944 ft 268 kts 193°
2026-04-26 11:38 -34.08024 151.07944 4763 ft 268 kts 180°
2026-04-26 11:38 -34.09895 151.08218 4579 ft 269 kts 167°
2026-04-26 11:38 -34.11699 151.08695 4396 ft 269 kts 168°
2026-04-26 11:39 -34.13529 151.09170 4209 ft 268 kts 168°
2026-04-26 11:39 -34.15361 151.09643 4025 ft 270 kts 168°
2026-04-26 11:39 -34.17203 151.10119 3841 ft 271 kts 168°
2026-04-26 11:39 -34.18978 151.10578 3732 ft 250 kts 168°
2026-04-26 11:40 -34.20475 151.11384 3618 ft 226 kts 135°
2026-04-26 11:40 -34.21136 151.12952 3554 ft 203 kts 92°
2026-04-26 11:40 -34.20834 151.14539 3474 ft 193 kts 56°
2026-04-26 11:40 -34.20149 151.15889 3439 ft 182 kts 59°
2026-04-26 11:41 -34.19613 151.17219 3323 ft 170 kts 61°
2026-04-26 11:42 -34.15302 151.22977 3011 ft 137 kts 348°
2026-04-26 11:43 -34.14378 151.22735 3011 ft 136 kts 348°
2026-04-26 11:43 -34.13456 151.22495 3011 ft 137 kts 347°
2026-04-26 11:43 -34.12530 151.22255 3014 ft 137 kts 348°
2026-04-26 11:43 -34.11586 151.22009 2936 ft 140 kts 348°
2026-04-26 11:44 -34.10635 151.21761 2811 ft 139 kts 348°
2026-04-26 11:44 -34.09689 151.21515 2649 ft 139 kts 349°
2026-04-26 11:44 -34.08750 151.21270 2465 ft 138 kts 349°
2026-04-26 11:44 -34.07814 151.21027 2294 ft 137 kts 349°
2026-04-26 11:45 -34.07200 151.20867 2172 ft 136 kts 349°
2026-04-26 11:45 -34.06278 151.20627 1993 ft 135 kts 350°
2026-04-26 11:45 -34.05362 151.20388 1811 ft 135 kts 350°
2026-04-26 11:45 -34.04477 151.20158 1633 ft 126 kts 350°
2026-04-26 11:46 -34.03628 151.19937 1458 ft 125 kts 351°
2026-04-26 11:46 -34.02788 151.19719 1304 ft 123 kts 350°
2026-04-26 11:46 -34.01959 151.19503 1146 ft 122 kts 350°
2026-04-26 11:46 -34.01125 151.19286 991 ft 121 kts 351°
2026-04-26 11:47 -34.00295 151.19071 818 ft 123 kts 350°
2026-04-26 11:47 -33.99461 151.18854 667 ft 123 kts 350°
2026-04-26 11:47 -33.98618 151.18635 487 ft 126 kts 351°
2026-04-26 11:47 -33.97771 151.18415 322 ft 123 kts 350°
2026-04-26 11:48 -33.96940 151.18199 169 ft 121 kts 349°
2026-04-26 11:48 -33.96116 151.17986 29 ft 118 kts 348°
2026-04-26 11:48 -33.95526 151.17832 29 ft 72 kts 348°
2026-04-26 11:48 -33.95048 151.17710 27 ft 63 kts 348°
2026-04-26 11:49 -33.94780 151.17646 29 ft 36 kts 353°
2026-04-26 11:49 -33.94653 151.17647 29 ft 0 kts
2026-04-26 11:49 -33.94629 151.17650 29 ft 7 kts
2026-04-26 11:49 -33.94571 151.17663 30 ft 10 kts 14°
2026-04-26 11:50 -33.94494 151.17691 30 ft 13 kts 18°
2026-04-26 11:50 -33.94401 151.17727 30 ft 16 kts 15°
2026-04-26 11:50 -33.94304 151.17727 30 ft 12 kts 342°
2026-04-26 11:50 -33.94213 151.17699 29 ft 15 kts 345°